Regional Weather Roundup
Issued by NWS Cleveland, OH

Home | Current Version | Previous Version | Text Only | Print | Product List | Glossary Off
Versions: 1 2 3 4 5 6 7 8 9 10 11 12 13 14 15 16 17 18 19 20 21 22 23 24 25 26 27 28 29 30 31 32 33 34 35 36 37 38 39 40 41 42 43 44 45 46 47 48 49 50

000
ASUS41 KCLE 302310
RWRCLE
OHIO REGIONAL WEATHER ROUNDUP
NATIONAL WEATHER SERVICE WILMINGTON, OH
600 PM EST FRI JAN 30 2015

NOTE: "FAIR" INDICATES FEW OR NO CLOUDS BELOW 12,000 FEET WITH NO
SIGNIFICANT WEATHER AND/OR OBSTRUCTIONS TO VISIBILITY.

OHZ001>008-015>018-024>027-034-035-043-044-310000-
   NORTHWEST OHIO

CITY           SKY/WX    TMP DP  RH WIND       PRES   REMARKS
DEFIANCE       CLEAR     24  11  57 W3        30.44F
FINDLAY        CLEAR     21   9  59 NW3       30.43S
TOLEDO EXPRESS CLEAR     20   7  57 CALM      30.44S
TOLEDO EXEC    CLEAR     20   7  57 NW6       30.45S WCI  12
LIMA           PTCLDY    23  11  60 N5        30.43R WCI  17
$$

OHZ009>014-019>023-028>033-038-089-310000-
   NORTHEAST OHIO

CITY           SKY/WX    TMP DP  RH WIND       PRES   REMARKS
CLE-HOPKINS    MOCLDY    15   4  61 N9        30.46R WCI   3
CLE-LAKEFRONT  CLEAR     15   6  67 NW10      30.44S WCI   2
CUY CO. ARPT   MOCLDY    16   9  73 NW16      30.42R WCI   0
LORAIN-ELYRIA  CLEAR     15   4  61 N7        30.44S WCI   5
ASHTABULA      FLURRIES  15   8  73 NW13G23   30.38R WCI   1
AKRON-CANTON   MOCLDY    15   4  61 NW10      30.38R WCI   2
WOOSTER        CLEAR     12   2  64 NW7       30.40S WCI   1
MANSFIELD      CLEAR     14   4  64 CALM      30.39S
YOUNGSTOWN     LGT SNOW  14   9  80 NW12      30.35R WCI   0
$$

OHZ042-051>053-060>062-070>072-077>081-310000-
  SOUTHWEST OHIO

CITY           SKY/WX    TMP DP  RH WIND       PRES   REMARKS
CINC-COVINGTON PTCLDY    28  15  58 N5        30.44R WCI  23
CINC-LUNKEN    CLEAR     27  14  58 N5        30.48R WCI  22
HAMILTON       CLEAR     27  15  61 N5        30.47S WCI  22
DAYTON         PTCLDY    22  13  68 N6        30.44F WCI  14
WRIGHT-PAT AFB PTCLDY    23  11  62 NW6       30.45S WCI  15
DAYTON GENERAL PTCLDY    25  13  60 NW8       30.43S WCI  16
WILMINGTON     CLEAR     22  12  65 N8        30.43R WCI  12
$$

OHZ036-037-039>041-045>050-054>059-063>069-073>076-082>088-310000-
  CENTRAL AND SOUTHEAST OHIO

CITY           SKY/WX    TMP DP  RH WIND       PRES   REMARKS
COLUMBUS       PTCLDY    20   8  60 NW8       30.43S WCI  10
OSU AIRPORT    CLEAR     19   8  62 N9        30.44R WCI   8
BOLTON FIELD   CLEAR     19   9  63 NW5       30.44R WCI  13
RICKENBACK AFB CLEAR     21  10  62 N7        30.44S WCI  13
NEWARK         CLEAR     19   7  59 NW6       30.42S WCI  11
MARION         CLEAR     19   7  59 NW6       30.43R WCI  11
LANCASTER      CLEAR     22  10  60 NW9       30.44R WCI  12
ZANESVILLE     CLEAR     17   4  56 NW7       30.42R WCI   8
NEW PHILLY     CLOUDY    16   6  65 N6        30.43R WCI   7
$$



USA.gov is the U.S. government's official web portal to all federal, state and local government web resources and services.